contact:dominique.lefevre@mio.osupytheas.fr, maurice.libes@osupytheas.fr, didier.mallarino@osupytheas.fr
Project:EMSO http://www.emso-fr.org/EMSO-France
Depth: 2436.0 m
Title:EMSO Ligure Ouest : Data MII capteur OXYGEN
DateTime,Latitude,Longitude,Optode-Type,Optode_Serial,Oxygen,Saturation_Oxygen,Temperature
DateTime,Latitude,Longitude,Optode-Type,Optode_Serial,µmol.l-1,%,degC
2019-05-30T00:01:26,42.805,6.029,4330,1995,195.603,59.818,13.288
2019-05-30T00:04:26,42.805,6.029,4330,1995,195.668,59.838,13.288
2019-05-30T00:07:26,42.805,6.029,4330,1995,195.577,59.811,13.288
2019-05-30T00:10:26,42.805,6.029,4330,1995,195.564,59.807,13.289
2019-05-30T00:13:26,42.805,6.029,4330,1995,195.554,59.804,13.288
2019-05-30T00:16:26,42.805,6.029,4330,1995,195.566,59.808,13.289
2019-05-30T00:19:26,42.805,6.029,4330,1995,195.564,59.807,13.288
2019-05-30T00:22:26,42.805,6.029,4330,1995,195.557,59.805,13.288
2019-05-30T00:25:26,42.805,6.029,4330,1995,195.563,59.807,13.289
2019-05-30T00:28:26,42.805,6.029,4330,1995,195.639,59.830,13.288
2019-05-30T00:31:26,42.805,6.029,4330,1995,195.533,59.797,13.289
2019-05-30T00:34:26,42.805,6.029,4330,1995,195.580,59.812,13.289
2019-05-30T00:37:26,42.805,6.029,4330,1995,195.570,59.809,13.289
2019-05-30T00:40:26,42.805,6.029,4330,1995,195.544,59.801,13.289
2019-05-30T00:43:26,42.805,6.029,4330,1995,195.570,59.809,13.289
2019-05-30T00:46:26,42.805,6.029,4330,1995,195.572,59.810,13.289
2019-05-30T00:49:26,42.805,6.029,4330,1995,195.553,59.804,13.289
2019-05-30T00:52:26,42.805,6.029,4330,1995,195.542,59.801,13.289
2019-05-30T00:55:26,42.805,6.029,4330,1995,195.474,59.780,13.289
2019-05-30T00:58:26,42.805,6.029,4330,1995,195.506,59.790,13.289
2019-05-30T01:01:26,42.805,6.029,4330,1995,195.512,59.791,13.289
2019-05-30T01:04:26,42.805,6.029,4330,1995,195.503,59.788,13.289
2019-05-30T01:07:26,42.805,6.029,4330,1995,195.499,59.787,13.288
2019-05-30T01:10:26,42.805,6.029,4330,1995,195.547,59.801,13.288
2019-05-30T01:13:26,42.805,6.029,4330,1995,195.545,59.801,13.288
2019-05-30T01:16:26,42.805,6.029,4330,1995,195.530,59.796,13.288
2019-05-30T01:19:26,42.805,6.029,4330,1995,195.529,59.796,13.288
2019-05-30T01:22:26,42.805,6.029,4330,1995,195.502,59.787,13.288
2019-05-30T01:25:26,42.805,6.029,4330,1995,195.526,59.794,13.288
2019-05-30T01:28:26,42.805,6.029,4330,1995,195.518,59.792,13.288
2019-05-30T01:31:26,42.805,6.029,4330,1995,195.496,59.785,13.288
2019-05-30T01:34:26,42.805,6.029,4330,1995,195.546,59.800,13.288
2019-05-30T01:37:26,42.805,6.029,4330,1995,195.551,59.802,13.288
2019-05-30T01:40:26,42.805,6.029,4330,1995,195.502,59.787,13.288
2019-05-30T01:43:26,42.805,6.029,4330,1995,195.526,59.794,13.288
2019-05-30T01:46:26,42.805,6.029,4330,1995,195.556,59.803,13.288
2019-05-30T01:49:26,42.805,6.029,4330,1995,195.539,59.798,13.288
2019-05-30T01:52:26,42.805,6.029,4330,1995,195.467,59.777,13.288
2019-05-30T01:55:26,42.805,6.029,4330,1995,195.518,59.792,13.288
2019-05-30T01:58:26,42.805,6.029,4330,1995,195.505,59.788,13.288
2019-05-30T02:01:26,42.805,6.029,4330,1995,195.535,59.798,13.288
2019-05-30T02:04:26,42.805,6.029,4330,1995,195.513,59.791,13.288
2019-05-30T02:07:26,42.805,6.029,4330,1995,195.480,59.781,13.288
2019-05-30T02:10:26,42.805,6.029,4330,1995,195.533,59.797,13.288
2019-05-30T02:13:26,42.805,6.029,4330,1995,195.513,59.791,13.288
2019-05-30T02:16:26,42.805,6.029,4330,1995,195.569,59.808,13.288
2019-05-30T02:19:26,42.805,6.029,4330,1995,195.550,59.803,13.288
2019-05-30T02:22:26,42.805,6.029,4330,1995,195.492,59.785,13.288
2019-05-30T02:25:26,42.805,6.029,4330,1995,195.540,59.800,13.289
2019-05-30T02:28:26,42.805,6.029,4330,1995,195.512,59.791,13.289
2019-05-30T02:31:26,42.805,6.029,4330,1995,195.562,59.806,13.288
2019-05-30T02:34:26,42.805,6.029,4330,1995,195.568,59.808,13.289
2019-05-30T02:37:26,42.805,6.029,4330,1995,195.538,59.799,13.289
2019-05-30T02:40:26,42.805,6.029,4330,1995,195.470,59.778,13.289
2019-05-30T02:43:26,42.805,6.029,4330,1995,195.540,59.800,13.289
2019-05-30T02:46:26,42.805,6.029,4330,1995,195.539,59.800,13.289
2019-05-30T02:49:26,42.805,6.029,4330,1995,195.565,59.808,13.289
2019-05-30T02:52:26,42.805,6.029,4330,1995,195.578,59.811,13.289
2019-05-30T02:55:26,42.805,6.029,4330,1995,195.555,59.805,13.289
2019-05-30T02:58:26,42.805,6.029,4330,1995,195.583,59.813,13.289
2019-05-30T03:01:26,42.805,6.029,4330,1995,195.554,59.804,13.289
2019-05-30T03:04:26,42.805,6.029,4330,1995,195.610,59.821,13.289
2019-05-30T03:07:26,42.805,6.029,4330,1995,195.632,59.828,13.288
2019-05-30T03:10:26,42.805,6.029,4330,1995,195.652,59.834,13.289
2019-05-30T03:13:26,42.805,6.029,4330,1995,195.567,59.808,13.289
2019-05-30T03:16:26,42.805,6.029,4330,1995,195.636,59.829,13.288
2019-05-30T03:19:26,42.805,6.029,4330,1995,195.623,59.825,13.288
2019-05-30T03:22:26,42.805,6.029,4330,1995,195.599,59.817,13.288
2019-05-30T03:25:26,42.805,6.029,4330,1995,195.659,59.835,13.288
2019-05-30T03:28:26,42.805,6.029,4330,1995,195.676,59.840,13.288
2019-05-30T03:31:26,42.805,6.029,4330,1995,195.620,59.823,13.288
2019-05-30T03:34:26,42.805,6.029,4330,1995,195.680,59.842,13.288
2019-05-30T03:37:26,42.805,6.029,4330,1995,195.681,59.842,13.288
2019-05-30T03:40:26,42.805,6.029,4330,1995,195.680,59.842,13.288
2019-05-30T03:43:26,42.805,6.029,4330,1995,195.700,59.847,13.288
2019-05-30T03:46:26,42.805,6.029,4330,1995,195.649,59.832,13.288
2019-05-30T03:49:26,42.805,6.029,4330,1995,195.650,59.832,13.288
2019-05-30T03:52:26,42.805,6.029,4330,1995,195.609,59.820,13.288
2019-05-30T03:55:26,42.805,6.029,4330,1995,195.607,59.819,13.288
2019-05-30T03:58:26,42.805,6.029,4330,1995,195.684,59.843,13.288
2019-05-30T04:01:26,42.805,6.029,4330,1995,195.691,59.845,13.288
2019-05-30T04:04:26,42.805,6.029,4330,1995,195.637,59.829,13.288
2019-05-30T04:07:26,42.805,6.029,4330,1995,195.710,59.851,13.288
2019-05-30T04:10:26,42.805,6.029,4330,1995,195.634,59.829,13.289
2019-05-30T04:13:26,42.805,6.029,4330,1995,195.676,59.842,13.290
2019-05-30T04:16:26,42.805,6.029,4330,1995,195.732,59.858,13.288
2019-05-30T04:19:26,42.805,6.029,4330,1995,195.729,59.857,13.288
2019-05-30T04:22:26,42.805,6.029,4330,1995,195.713,59.852,13.288
2019-05-30T04:25:26,42.805,6.029,4330,1995,195.727,59.857,13.289
2019-05-30T04:28:26,42.805,6.029,4330,1995,195.765,59.868,13.288
2019-05-30T04:31:26,42.805,6.029,4330,1995,195.707,59.850,13.288
2019-05-30T04:34:26,42.805,6.029,4330,1995,195.779,59.872,13.288
2019-05-30T04:37:26,42.805,6.029,4330,1995,195.826,59.886,13.288
2019-05-30T04:40:26,42.805,6.029,4330,1995,195.715,59.853,13.289
2019-05-30T04:43:26,42.805,6.029,4330,1995,195.718,59.854,13.288
2019-05-30T04:46:26,42.805,6.029,4330,1995,195.839,59.890,13.288
2019-05-30T04:49:26,42.805,6.029,4330,1995,195.774,59.871,13.289
2019-05-30T04:52:26,42.805,6.029,4330,1995,195.757,59.866,13.288
2019-05-30T04:55:26,42.805,6.029,4330,1995,195.804,59.880,13.288
2019-05-30T04:58:26,42.805,6.029,4330,1995,195.763,59.869,13.289
2019-05-30T05:01:26,42.805,6.029,4330,1995,195.800,59.878,13.288
2019-05-30T05:04:26,42.805,6.029,4330,1995,195.778,59.872,13.288
2019-05-30T05:07:26,42.805,6.029,4330,1995,195.820,59.885,13.288
2019-05-30T05:10:26,42.805,6.029,4330,1995,195.823,59.886,13.288
2019-05-30T05:13:26,42.805,6.029,4330,1995,195.744,59.862,13.288
2019-05-30T05:16:26,42.805,6.029,4330,1995,195.840,59.891,13.288
2019-05-30T05:19:26,42.805,6.029,4330,1995,195.813,59.882,13.288
2019-05-30T05:22:26,42.805,6.029,4330,1995,195.784,59.873,13.288
2019-05-30T05:25:26,42.805,6.029,4330,1995,195.841,59.891,13.288
2019-05-30T05:28:26,42.805,6.029,4330,1995,195.808,59.880,13.288
2019-05-30T05:31:26,42.805,6.029,4330,1995,195.775,59.870,13.288
2019-05-30T05:34:26,42.805,6.029,4330,1995,195.841,59.891,13.288
2019-05-30T05:37:26,42.805,6.029,4330,1995,195.855,59.895,13.288
2019-05-30T05:40:26,42.805,6.029,4330,1995,195.791,59.875,13.287
2019-05-30T05:43:26,42.805,6.029,4330,1995,195.837,59.889,13.287
2019-05-30T05:46:26,42.805,6.029,4330,1995,195.841,59.890,13.287
2019-05-30T05:49:26,42.805,6.029,4330,1995,195.795,59.876,13.287
2019-05-30T05:52:26,42.805,6.029,4330,1995,195.846,59.891,13.287
2019-05-30T05:55:26,42.805,6.029,4330,1995,195.824,59.884,13.287
2019-05-30T05:58:26,42.805,6.029,4330,1995,195.798,59.877,13.287
2019-05-30T06:01:26,42.805,6.029,4330,1995,195.878,59.901,13.287
2019-05-30T06:04:26,42.805,6.029,4330,1995,195.824,59.884,13.287
2019-05-30T06:07:26,42.805,6.029,4330,1995,195.814,59.881,13.287
2019-05-30T06:10:26,42.805,6.029,4330,1995,195.818,59.883,13.287
2019-05-30T06:13:26,42.805,6.029,4330,1995,195.896,59.907,13.287
2019-05-30T06:16:26,42.805,6.029,4330,1995,195.810,59.880,13.287
2019-05-30T06:19:26,42.805,6.029,4330,1995,195.828,59.886,13.287
2019-05-30T06:22:26,42.805,6.029,4330,1995,195.825,59.885,13.287
2019-05-30T06:25:26,42.805,6.029,4330,1995,195.844,59.891,13.287
2019-05-30T06:28:26,42.805,6.029,4330,1995,195.888,59.904,13.287
2019-05-30T06:31:26,42.805,6.029,4330,1995,195.862,59.897,13.287
2019-05-30T06:34:26,42.805,6.029,4330,1995,195.848,59.892,13.288
2019-05-30T06:37:26,42.805,6.029,4330,1995,195.872,59.900,13.288
2019-05-30T06:40:26,42.805,6.029,4330,1995,195.818,59.883,13.288
2019-05-30T06:43:26,42.805,6.029,4330,1995,195.825,59.885,13.287
2019-05-30T06:46:26,42.805,6.029,4330,1995,195.836,59.888,13.287
2019-05-30T06:49:26,42.805,6.029,4330,1995,195.885,59.904,13.288
2019-05-30T06:52:26,42.805,6.029,4330,1995,195.889,59.905,13.288
2019-05-30T06:55:26,42.805,6.029,4330,1995,195.858,59.896,13.288
2019-05-30T06:58:26,42.805,6.029,4330,1995,195.850,59.894,13.288
2019-05-30T07:01:26,42.805,6.029,4330,1995,195.879,59.903,13.288
2019-05-30T07:04:26,42.805,6.029,4330,1995,195.870,59.899,13.288
2019-05-30T07:07:26,42.805,6.029,4330,1995,195.848,59.893,13.288
2019-05-30T07:10:26,42.805,6.029,4330,1995,195.798,59.878,13.288
2019-05-30T07:13:26,42.805,6.029,4330,1995,195.894,59.907,13.288
2019-05-30T07:16:26,42.805,6.029,4330,1995,195.831,59.888,13.288
2019-05-30T07:19:26,42.805,6.029,4330,1995,195.824,59.885,13.288
2019-05-30T07:22:26,42.805,6.029,4330,1995,195.880,59.903,13.288
2019-05-30T07:25:26,42.805,6.029,4330,1995,195.918,59.914,13.288
2019-05-30T07:28:26,42.805,6.029,4330,1995,195.845,59.892,13.288
2019-05-30T07:31:26,42.805,6.029,4330,1995,195.870,59.900,13.288
2019-05-30T07:34:26,42.805,6.029,4330,1995,195.877,59.902,13.288
2019-05-30T07:37:26,42.805,6.029,4330,1995,195.832,59.887,13.287
2019-05-30T07:40:26,42.805,6.029,4330,1995,195.888,59.905,13.288
2019-05-30T07:43:26,42.805,6.029,4330,1995,195.923,59.915,13.287
2019-05-30T07:46:26,42.805,6.029,4330,1995,195.882,59.903,13.287
2019-05-30T07:49:26,42.805,6.029,4330,1995,195.888,59.904,13.287
2019-05-30T07:52:26,42.805,6.029,4330,1995,195.894,59.906,13.288
2019-05-30T07:55:26,42.805,6.029,4330,1995,195.898,59.907,13.287
2019-05-30T07:58:26,42.805,6.029,4330,1995,195.856,59.894,13.287
2019-05-30T08:01:26,42.805,6.029,4330,1995,195.884,59.903,13.287
2019-05-30T08:04:26,42.805,6.029,4330,1995,195.920,59.914,13.287
2019-05-30T08:07:26,42.805,6.029,4330,1995,195.954,59.924,13.287
2019-05-30T08:10:26,42.805,6.029,4330,1995,195.875,59.900,13.287
2019-05-30T08:13:26,42.805,6.029,4330,1995,195.876,59.900,13.287
2019-05-30T08:16:26,42.805,6.029,4330,1995,195.853,59.893,13.287
2019-05-30T08:19:26,42.805,6.029,4330,1995,195.893,59.906,13.287
2019-05-30T08:22:26,42.805,6.029,4330,1995,195.840,59.890,13.287
2019-05-30T08:25:26,42.805,6.029,4330,1995,195.875,59.900,13.287
2019-05-30T08:28:26,42.805,6.029,4330,1995,195.863,59.896,13.287
2019-05-30T08:31:26,42.805,6.029,4330,1995,195.889,59.904,13.287
2019-05-30T08:34:26,42.805,6.029,4330,1995,195.875,59.900,13.287
2019-05-30T08:37:26,42.805,6.029,4330,1995,195.868,59.898,13.287
2019-05-30T08:40:26,42.805,6.029,4330,1995,195.845,59.891,13.287
2019-05-30T08:43:26,42.805,6.029,4330,1995,195.869,59.898,13.287
2019-05-30T08:46:26,42.805,6.029,4330,1995,195.886,59.904,13.287
2019-05-30T08:49:26,42.805,6.029,4330,1995,195.912,59.912,13.287
2019-05-30T08:52:26,42.805,6.029,4330,1995,195.875,59.901,13.287
2019-05-30T08:55:26,42.805,6.029,4330,1995,195.899,59.908,13.288
2019-05-30T08:58:26,42.805,6.029,4330,1995,195.886,59.904,13.287
2019-05-30T09:01:26,42.805,6.029,4330,1995,195.854,59.894,13.288
2019-05-30T09:04:26,42.805,6.029,4330,1995,195.853,59.895,13.288
2019-05-30T09:07:26,42.805,6.029,4330,1995,195.882,59.903,13.288
2019-05-30T09:10:26,42.805,6.029,4330,1995,195.868,59.899,13.288
2019-05-30T09:13:26,42.805,6.029,4330,1995,195.915,59.913,13.288
2019-05-30T09:16:26,42.805,6.029,4330,1995,195.856,59.895,13.288
2019-05-30T09:19:26,42.805,6.029,4330,1995,195.876,59.901,13.288
2019-05-30T09:22:26,42.805,6.029,4330,1995,195.851,59.894,13.288
2019-05-30T09:25:26,42.805,6.029,4330,1995,195.828,59.887,13.288
2019-05-30T09:28:26,42.805,6.029,4330,1995,195.834,59.889,13.288
2019-05-30T09:31:26,42.805,6.029,4330,1995,195.880,59.903,13.288
2019-05-30T09:34:26,42.805,6.029,4330,1995,195.824,59.885,13.288
2019-05-30T09:37:26,42.805,6.029,4330,1995,195.878,59.902,13.288
2019-05-30T09:40:26,42.805,6.029,4330,1995,195.894,59.907,13.288
2019-05-30T09:43:26,42.805,6.029,4330,1995,195.875,59.901,13.288
2019-05-30T09:46:26,42.805,6.029,4330,1995,195.794,59.876,13.288
2019-05-30T09:49:26,42.805,6.029,4330,1995,195.891,59.906,13.288
2019-05-30T09:52:26,42.805,6.029,4330,1995,195.842,59.891,13.288
2019-05-30T09:55:26,42.805,6.029,4330,1995,195.791,59.875,13.288
2019-05-30T09:58:26,42.805,6.029,4330,1995,195.817,59.883,13.288
2019-05-30T10:01:26,42.805,6.029,4330,1995,195.812,59.882,13.288
2019-05-30T10:04:26,42.805,6.029,4330,1995,195.841,59.890,13.287
2019-05-30T10:07:26,42.805,6.029,4330,1995,195.830,59.887,13.287
2019-05-30T10:10:26,42.805,6.029,4330,1995,195.839,59.889,13.287
2019-05-30T10:13:26,42.805,6.029,4330,1995,195.778,59.870,13.287
2019-05-30T10:16:26,42.805,6.029,4330,1995,195.832,59.887,13.287
2019-05-30T10:19:26,42.805,6.029,4330,1995,195.848,59.892,13.287
2019-05-30T10:22:26,42.805,6.029,4330,1995,195.840,59.889,13.287
2019-05-30T10:25:26,42.805,6.029,4330,1995,195.770,59.868,13.287
2019-05-30T10:28:26,42.805,6.029,4330,1995,195.774,59.869,13.287
2019-05-30T10:31:26,42.805,6.029,4330,1995,195.888,59.904,13.287
2019-05-30T10:34:26,42.805,6.029,4330,1995,195.820,59.884,13.287
2019-05-30T10:37:26,42.805,6.029,4330,1995,195.786,59.873,13.288
2019-05-30T10:40:26,42.805,6.029,4330,1995,195.800,59.878,13.288
2019-05-30T10:43:26,42.805,6.029,4330,1995,195.756,59.864,13.288
2019-05-30T10:46:26,42.805,6.029,4330,1995,195.838,59.889,13.287
2019-05-30T10:49:26,42.805,6.029,4330,1995,195.818,59.883,13.287
2019-05-30T10:52:26,42.805,6.029,4330,1995,195.838,59.889,13.287
2019-05-30T10:55:26,42.805,6.029,4330,1995,195.771,59.869,13.287
2019-05-30T10:58:26,42.805,6.029,4330,1995,195.833,59.888,13.287
2019-05-30T11:01:26,42.805,6.029,4330,1995,195.779,59.872,13.288
2019-05-30T11:04:26,42.805,6.029,4330,1995,195.790,59.875,13.288
2019-05-30T11:07:26,42.805,6.029,4330,1995,195.819,59.884,13.288
2019-05-30T11:10:26,42.805,6.029,4330,1995,195.830,59.887,13.288
2019-05-30T11:13:26,42.805,6.029,4330,1995,195.841,59.890,13.288
2019-05-30T11:16:26,42.805,6.029,4330,1995,195.848,59.893,13.288
2019-05-30T11:19:26,42.805,6.029,4330,1995,195.860,59.896,13.288
2019-05-30T11:22:26,42.805,6.029,4330,1995,195.783,59.873,13.288
2019-05-30T11:25:26,42.805,6.029,4330,1995,195.822,59.885,13.288
2019-05-30T11:28:26,42.805,6.029,4330,1995,195.830,59.888,13.288
2019-05-30T11:31:26,42.805,6.029,4330,1995,195.777,59.872,13.288
2019-05-30T11:34:26,42.805,6.029,4330,1995,195.837,59.890,13.288
2019-05-30T11:37:26,42.805,6.029,4330,1995,195.784,59.874,13.288
2019-05-30T11:40:26,42.805,6.029,4330,1995,195.796,59.877,13.288
2019-05-30T11:43:26,42.805,6.029,4330,1995,195.824,59.886,13.288
2019-05-30T11:46:26,42.805,6.029,4330,1995,195.817,59.884,13.288
2019-05-30T11:49:26,42.805,6.029,4330,1995,195.751,59.864,13.288
2019-05-30T11:52:26,42.805,6.029,4330,1995,195.850,59.894,13.288
2019-05-30T11:55:26,42.805,6.029,4330,1995,195.801,59.879,13.288
2019-05-30T11:58:26,42.805,6.029,4330,1995,195.801,59.879,13.288
2019-05-30T12:01:26,42.805,6.029,4330,1995,195.741,59.861,13.288
2019-05-30T12:04:26,42.805,6.029,4330,1995,195.775,59.871,13.288
2019-05-30T12:07:26,42.805,6.029,4330,1995,195.768,59.868,13.288
2019-05-30T12:10:26,42.805,6.029,4330,1995,195.765,59.867,13.288
2019-05-30T12:13:26,42.805,6.029,4330,1995,195.816,59.883,13.288
2019-05-30T12:16:26,42.805,6.029,4330,1995,195.800,59.878,13.288
2019-05-30T12:19:26,42.805,6.029,4330,1995,195.766,59.868,13.288
2019-05-30T12:22:26,42.805,6.029,4330,1995,195.720,59.853,13.287
2019-05-30T12:25:26,42.805,6.029,4330,1995,195.780,59.872,13.287
2019-05-30T12:28:26,42.805,6.029,4330,1995,195.783,59.872,13.287
2019-05-30T12:31:26,42.805,6.029,4330,1995,195.854,59.894,13.287
2019-05-30T12:34:26,42.805,6.029,4330,1995,195.784,59.872,13.287
2019-05-30T12:37:26,42.805,6.029,4330,1995,195.762,59.866,13.287
2019-05-30T12:40:26,42.805,6.029,4330,1995,195.819,59.883,13.287
2019-05-30T12:43:26,42.805,6.029,4330,1995,195.807,59.880,13.287
2019-05-30T12:46:26,42.805,6.029,4330,1995,195.822,59.884,13.287
2019-05-30T12:49:26,42.805,6.029,4330,1995,195.804,59.879,13.288
2019-05-30T12:52:26,42.805,6.029,4330,1995,195.779,59.871,13.288
2019-05-30T12:55:26,42.805,6.029,4330,1995,195.833,59.888,13.288
2019-05-30T12:58:26,42.805,6.029,4330,1995,195.759,59.866,13.288
2019-05-30T13:01:26,42.805,6.029,4330,1995,195.730,59.856,13.288
2019-05-30T13:04:26,42.805,6.029,4330,1995,195.727,59.856,13.288
2019-05-30T13:07:26,42.805,6.029,4330,1995,195.723,59.855,13.288
2019-05-30T13:10:26,42.805,6.029,4330,1995,195.778,59.872,13.288
2019-05-30T13:13:26,42.805,6.029,4330,1995,195.743,59.861,13.288
2019-05-30T13:16:26,42.805,6.029,4330,1995,195.736,59.859,13.288
2019-05-30T13:19:26,42.805,6.029,4330,1995,195.686,59.844,13.288
2019-05-30T13:22:26,42.805,6.029,4330,1995,195.756,59.865,13.288
2019-05-30T13:25:26,42.805,6.029,4330,1995,195.715,59.852,13.288
2019-05-30T13:28:26,42.805,6.029,4330,1995,195.734,59.859,13.288
2019-05-30T13:31:26,42.805,6.029,4330,1995,195.715,59.853,13.289
2019-05-30T13:34:26,42.805,6.029,4330,1995,195.699,59.848,13.289
2019-05-30T13:37:26,42.805,6.029,4330,1995,195.682,59.843,13.288
2019-05-30T13:40:26,42.805,6.029,4330,1995,195.695,59.847,13.289
2019-05-30T13:43:26,42.805,6.029,4330,1995,195.685,59.844,13.288
2019-05-30T13:46:26,42.805,6.029,4330,1995,195.683,59.843,13.289
2019-05-30T13:49:26,42.805,6.029,4330,1995,195.692,59.846,13.289
2019-05-30T13:52:26,42.805,6.029,4330,1995,195.684,59.843,13.288
2019-05-30T13:55:26,42.805,6.029,4330,1995,195.668,59.839,13.289
2019-05-30T13:58:26,42.805,6.029,4330,1995,195.659,59.837,13.289
2019-05-30T14:01:26,42.805,6.029,4330,1995,195.613,59.823,13.289
2019-05-30T14:04:26,42.805,6.029,4330,1995,195.565,59.808,13.289
2019-05-30T14:07:26,42.805,6.029,4330,1995,195.597,59.818,13.289
2019-05-30T14:10:26,42.805,6.029,4330,1995,195.533,59.798,13.289
2019-05-30T14:13:26,42.805,6.029,4330,1995,195.630,59.827,13.289
2019-05-30T14:16:26,42.805,6.029,4330,1995,195.597,59.817,13.289
2019-05-30T14:19:26,42.805,6.029,4330,1995,195.603,59.819,13.288
2019-05-30T14:22:26,42.805,6.029,4330,1995,195.646,59.832,13.288
2019-05-30T14:25:26,42.805,6.029,4330,1995,195.590,59.814,13.288
2019-05-30T14:28:26,42.805,6.029,4330,1995,195.585,59.813,13.288
2019-05-30T14:31:26,42.805,6.029,4330,1995,195.490,59.784,13.288
2019-05-30T14:34:26,42.805,6.029,4330,1995,195.524,59.794,13.288
2019-05-30T14:37:26,42.805,6.029,4330,1995,195.557,59.804,13.288
2019-05-30T14:40:25,42.805,6.029,4330,1995,195.481,59.781,13.288
2019-05-30T14:43:25,42.805,6.029,4330,1995,195.499,59.786,13.288
2019-05-30T14:46:25,42.805,6.029,4330,1995,195.486,59.782,13.288
2019-05-30T14:49:25,42.805,6.029,4330,1995,195.566,59.806,13.288
2019-05-30T14:52:25,42.805,6.029,4330,1995,195.558,59.803,13.287
2019-05-30T14:55:25,42.805,6.029,4330,1995,195.518,59.791,13.287
2019-05-30T14:58:25,42.805,6.029,4330,1995,195.517,59.791,13.288
2019-05-30T15:01:26,42.805,6.029,4330,1995,195.502,59.787,13.288
2019-05-30T15:04:26,42.805,6.029,4330,1995,195.426,59.763,13.288
2019-05-30T15:07:26,42.805,6.029,4330,1995,195.476,59.779,13.288
2019-05-30T15:10:26,42.805,6.029,4330,1995,195.523,59.793,13.288
2019-05-30T15:13:26,42.805,6.029,4330,1995,195.457,59.773,13.288
2019-05-30T15:16:25,42.805,6.029,4330,1995,195.460,59.774,13.288
2019-05-30T15:19:25,42.805,6.029,4330,1995,195.523,59.793,13.288
2019-05-30T15:22:25,42.805,6.029,4330,1995,195.522,59.793,13.288
2019-05-30T15:25:25,42.805,6.029,4330,1995,195.529,59.796,13.288
2019-05-30T15:28:25,42.805,6.029,4330,1995,195.499,59.786,13.288
2019-05-30T15:31:25,42.805,6.029,4330,1995,195.516,59.791,13.288
2019-05-30T15:34:25,42.805,6.029,4330,1995,195.493,59.784,13.288
2019-05-30T15:37:25,42.805,6.029,4330,1995,195.464,59.776,13.288
2019-05-30T15:40:25,42.805,6.029,4330,1995,195.528,59.796,13.288
2019-05-30T15:43:25,42.805,6.029,4330,1995,195.548,59.802,13.288
2019-05-30T15:46:25,42.805,6.029,4330,1995,195.481,59.781,13.288
2019-05-30T15:49:25,42.805,6.029,4330,1995,195.492,59.785,13.288
2019-05-30T15:52:25,42.805,6.029,4330,1995,195.472,59.779,13.288
2019-05-30T15:55:25,42.805,6.029,4330,1995,195.502,59.788,13.289
2019-05-30T15:58:25,42.805,6.029,4330,1995,195.487,59.784,13.289
2019-05-30T16:01:25,42.805,6.029,4330,1995,195.524,59.795,13.289
2019-05-30T16:04:25,42.805,6.029,4330,1995,195.574,59.810,13.289
2019-05-30T16:07:25,42.805,6.029,4330,1995,195.555,59.804,13.289
2019-05-30T16:10:25,42.805,6.029,4330,1995,195.535,59.798,13.289
2019-05-30T16:13:25,42.805,6.029,4330,1995,195.567,59.808,13.289
2019-05-30T16:16:25,42.805,6.029,4330,1995,195.562,59.806,13.288
2019-05-30T16:19:25,42.805,6.029,4330,1995,195.580,59.812,13.288
2019-05-30T16:22:25,42.805,6.029,4330,1995,195.555,59.804,13.288
2019-05-30T16:25:25,42.805,6.029,4330,1995,195.572,59.809,13.288
2019-05-30T16:28:25,42.805,6.029,4330,1995,195.579,59.811,13.288
2019-05-30T16:31:25,42.805,6.029,4330,1995,195.597,59.816,13.288
2019-05-30T16:34:25,42.805,6.029,4330,1995,195.507,59.789,13.288
2019-05-30T16:37:25,42.805,6.029,4330,1995,195.539,59.798,13.288
2019-05-30T16:40:25,42.805,6.029,4330,1995,195.496,59.785,13.288
2019-05-30T16:43:25,42.805,6.029,4330,1995,195.494,59.784,13.288
2019-05-30T16:46:25,42.805,6.029,4330,1995,195.505,59.787,13.288
2019-05-30T16:49:25,42.805,6.029,4330,1995,195.440,59.768,13.288
2019-05-30T16:52:25,42.805,6.029,4330,1995,195.487,59.782,13.287
2019-05-30T16:55:25,42.805,6.029,4330,1995,195.534,59.796,13.287
2019-05-30T16:58:25,42.805,6.029,4330,1995,195.505,59.787,13.287
2019-05-30T17:01:25,42.805,6.029,4330,1995,195.532,59.795,13.287
2019-05-30T17:04:25,42.805,6.029,4330,1995,195.609,59.819,13.288
2019-05-30T17:07:25,42.805,6.029,4330,1995,195.585,59.812,13.288
2019-05-30T17:10:25,42.805,6.029,4330,1995,195.559,59.804,13.287
2019-05-30T17:13:25,42.805,6.029,4330,1995,195.610,59.819,13.287
2019-05-30T17:16:25,42.805,6.029,4330,1995,195.544,59.799,13.288
2019-05-30T17:19:25,42.805,6.029,4330,1995,195.581,59.811,13.288
2019-05-30T17:22:25,42.805,6.029,4330,1995,195.558,59.804,13.288
2019-05-30T17:25:25,42.805,6.029,4330,1995,195.576,59.810,13.288
2019-05-30T17:28:25,42.805,6.029,4330,1995,195.580,59.811,13.288
2019-05-30T17:31:25,42.805,6.029,4330,1995,195.525,59.794,13.288
2019-05-30T17:34:25,42.805,6.029,4330,1995,195.574,59.809,13.288
2019-05-30T17:37:25,42.805,6.029,4330,1995,195.574,59.809,13.288
2019-05-30T17:40:25,42.805,6.029,4330,1995,195.604,59.818,13.288
2019-05-30T17:43:25,42.805,6.029,4330,1995,195.589,59.814,13.288
2019-05-30T17:46:25,42.805,6.029,4330,1995,195.662,59.836,13.288
2019-05-30T17:49:25,42.805,6.029,4330,1995,195.642,59.830,13.288
2019-05-30T17:52:25,42.805,6.029,4330,1995,195.579,59.811,13.288
2019-05-30T17:55:25,42.805,6.029,4330,1995,195.606,59.820,13.288
2019-05-30T17:58:25,42.805,6.029,4330,1995,195.629,59.826,13.288
2019-05-30T18:01:25,42.805,6.029,4330,1995,195.653,59.834,13.288
2019-05-30T18:04:25,42.805,6.029,4330,1995,195.680,59.842,13.288
2019-05-30T18:07:25,42.805,6.029,4330,1995,195.708,59.850,13.288